Location: Black Creek
(40.9000°S, 175.5500°E)
Time: 03:38:28
(UTC+00:00)

USA 267 - Pass Details

Date: 04 August 2024
Orbit: 1096 x 1111 km, 123.1° (Epoch: 03 September)

Event Time Altitude Azimuth Distance (km) Brightness Sun altitude
Rises 17:45:26 0° 48° (NE) 3,919 7.1 -18.2°
Reaches altitude 10° 17:47:54 10° 48° (NE) 2,965 6.3 -17.7°
Maximum altitude 17:54:29 87° 319° (NW) 1,116 3.2 -16.5°
Enters shadow 18:00:06 15° 228° (SW) 2,605 4.7 -15.4°
